STARLINK-35392, 65823

Orbit data source: Space-Track

STARLINK-35392, 65823 is a payload satellite owned by SpaceX/Seattle (US) in LEO that was launched on Mon, 29 Sep 2025 UTC via an FALCON 9 launch vehicle from the Air Force Western Test Range (AFWTR). Payload-class satellites include a variety of spacecraft equipped with specific instruments for various scientific and technological missions. These include communications satellites like Starlink; space stations such as the ISS; scientific satellites like the Hubble; Earth observation satellites from companies like Planet Labs, Umbra, and HawkEye 360; GPS; miniature CubeSats for education and research; and military/defense satellites.

Loading next visibility...
Identifier
65823, 2025-221A
Orbit
LEO
Country
Flag of USUS
Related business
Manufacturer
SpaceX/Seattle
Mission
Operational Commercial Communications
Bus & Motor
STARLINK V2MO, Unknown motor
Mass
575 kg wet, ~530 kg dry
Launch date (UTC)
2025-09-29 (1 month ago)
Launch vehicle
FALCON 9
Launch site
Air Force Western Test Range (AFWTR)
Object type
Payload
Rocket body
Debris
Shape & HBR
Box + 2 Pan, 17.7 m
Radar Cross Section
36.964 m²

Expand to show TLE details & history
Last TLE update: 2 days ago

TLE from 2 days ago
0 STARLINK-35392
1 65823U 25221A   25312.25004630  .00019778  00000-0  67878-3 0  9990
2 65823  53.1599 292.7663 0000757  94.2699 335.3716 15.30168307  5985
Epoch: 2025-11-08T06:00Z
TLE epoch observation values (Epoch: 2025-11-08T06:00:04.000Z)
Latitude
48.76408°
Longitude
-146.72278°
Altitude
480.376 km
Speed
7.632 km/s
True Right ascension
23h 23m 54s
True Declination
48° 35' 12"
Sunlit
Object was in full shadow at epoch
Visualization orbit readout
Latitude
Unknown
Longitude
Unknown
Altitude
Unknown
Speed
Unknown
Apparent Right ascension
Unknown
Apparent Declination
Unknown
Sunlit
N/A
Visualization observer readout
Local Sidereal Time
03:40:07
Azimuth
Unknown
Elevation
Unknown
Doppler factor
Unknown
Orbital elements
Apogee altitude
476.085 km
Perigee altitude
475.047 km
Semi-major axis
6,853.703 km
Eccentricity
0.00008
Inclination
53.1599°
RAAN
292.7663°
Arg. of periapsis
94.2699°
True anomaly
335.36798°
Mean anomaly
335.3716°
Eccentric anomaly
335.36979°
Mean motion
3.82521 °/min
Orbital period
94.11 mins
BSTAR
0.00067878
Loading maneuver chart data...
Computing Atmospheric mass density...
Loading historical data...
Loading historical data...
Loading historical data...
Loading historical data...
Loading historical data...
Loading historical data...
Loading historical data...

Documentation

Showing up to 5 results
|